RH
16 16 10 12 15 12 16 16 14 14 51 20 21 11 13 25 22 26 45 47 52 49 43 43 44 45 49 49 47 45 43 42 41 41 40 41 46 48 46 58 60 59 62 71
16 12 12 34 33 31 30 23 29 40 39 55 36 26 23 31 47 50 55 47 41 41 42 40 40 38 37 37 39 40 38 37 38 40 40 43 44 43 43 50 60 54 52 52
17 13 11 15 25 49 42 44 49 71 56 62 36 35 34 53 49 58 58 55 40 47 48 44 42 38 34 32 30 28 26 26 26 29 32 35 38 36 35 38 35 31 40 56
20 24 45 94 53 57 82 75 94 100 84 59 86 84 91 60 42 45 49 49 41 49 45 41 37 34 32 29 26 24 22 21 21 20 19 18 17 17 17 17 17 17 21 27
36 60 83 77 59 92 97 86 100 96 97 99 81 99 42 85 100 58 54 45 50 46 40 36 34 31 27 25 22 21 20 19 18 18 17 16 15 15 14 13 13 13 14 16
52 82 80 82 70 63 75 100 98 99 100 100 67 97 88 97 95 100 41 53 44 36 35 33 30 28 27 26 25 26 34 32 20 17 15 14 13 13 12 14 14 14 12 11
74 68 99 96 82 100 100 100 100 100 100 84 90 100 87 100 96 84 43 61 48 44 42 39 33 29 25 24 22 20 18 15 13 11 10 9 8 7 8 10 11 13 23 33
100 99 100 97 98 100 96 100 100 100 100 100 100 87 100 84 78 91 77 53 60 54 40 32 28 23 19 17 15 12 10 9 8 7 6 6 5 4 3 3 5 7 9 26
74 82 78 76 74 92 100 100 100 100 92 99 100 100 98 99 100 94 82 76 43 26 22 20 19 17 15 14 12 8 7 5 4 4 3 2 2 4 5 4 3 3 4 15
97 100 99 92 100 100 100 99 98 100 96 100 100 100 100 81 89 99 73 37 22 19 16 14 13 12 10 10 8 6 4 4 3 2 3 25 31 30 24 15 18 6 4 15
90 100 100 98 96 98 100 99 100 99 100 100 100 100 100 99 98 70 27 15 16 16 15 13 12 10 9 7 6 4 4 3 3 21 36 54 50 36 43 64 68 38 18 37
95 98 99 99 93 100 100 100 100 100 100 100 99 88 84 77 54 26 15 12 10 10 9 9 8 5 4 3 3 3 2 5 38 58 63 88 83 84 95 99 96 86 69 72
100 100 100 100 99 100 100 100 99 97 95 85 38 78 55 36 27 22 11 9 7 7 7 7 6 4 3 2 2 2 10 65 80 85 95 93 82 93 95 96 94 96 97 89
100 98 88 100 99 82 97 98 85 62 40 20 11 9 11 33 12 8 10 8 6 5 4 3 3 2 2 2 4 43 75 82 95 96 97 86 86 93 98 97 96 97 95 98
100 99 100 100 98 86 82 72 34 14 12 10 9 8 7 6 6 7 5 4 3 3 3 3 2 3 5 7 78 97 100 100 98 95 92 97 98 95 95 100 98 100 99 92
100 100 100 89 78 74 62 19 13 12 10 9 7 7 7 6 5 4 3 3 3 3 4 4 4 52 94 100 100 100 98 100 89 77 69 72 98 98 99 98 98 96 95 98
100 99 94 78 52 19 16 15 12 10 8 7 6 6 5 4 4 6 8 11 8 6 6 10 98 100 100 100 100 100 92 93 98 94 76 70 87 98 99 98 98 98 93 97
51 17 13 13 12 12 12 10 8 7 6 6 5 7 20 38 39 31 26 29 10 8 41 100 100 100 100 100 80 83 99 71 97 100 93 96 97 97 98 99 99 99 98 96
11 7 6 6 6 7 6 6 6 5 7 9 25 86 88 100 83 27 34 32 94 59 100 100 100 100 100 100 90 79 100 100 94 97 98 98 94 96 97 98 98 98 98 99
4 4 5 7 9 14 25 32 32 33 43 77 81 96 96 69 42 56 100 100 100 100 100 100 100 100 100 90 78 85 100 100 99 91 74 93 96 98 98 96 85 96 98 98
12 26 37 50 78 96 76 79 84 83 76 98 100 80 74 98 100 100 100 100 100 100 100 100 80 67 69 67 63 63 68 82 91 94 100 96 99 98 98 98 84 90 94 95
45 54 82 86 95 94 87 86 84 100 100 100 99 94 98 100 100 100 100 100 100 100 100 100 91 58 44 44 40 34 30 34 34 44 63 84 96 100 100 100 97 99 100 94
64 82 93 100 95 100 92 100 100 100 100 100 100 100 100 97 100 100 100 100 100 100 100 100 95 75 67 63 54 40 38 39 33 31 31 33 52 67 89 96 96 99 97 98
76 91 99 100 96 100 100 100 100 100 100 100 100 100 100 100 100 100 100 100 100 100 100 92 74 69 59 41 36 33 33 30 31 26 24 28 31 33 34 42 54 70 85 97
86 100 94 96 98 100 100 100 100 100 100 100 100 100 100 100 100 100 100 100 100 100 98 89 72 37 25 22 21 21 20 19 18 17 22 25 26 32 37 40 44 43 42 54
100 98 100 98 100 100 100 100 100 100 100 100 100 100 100 100 100 100 100 100 97 62 38 22 17 16 15 16 16 14 13 13 12 12 14 15 15 16 20 34 43 49 60 62
Wind_Speed
74 75 73 71 68 67 67 68 67 67 65 70 64 60 57 55 55 51 47 47 44 46 47 47 45 46 46 46 47 49 51 53 54 56 56 57 57 57 56 55 52 51 50 47
75 79 73 65 66 69 68 71 68 65 67 67 66 63 59 56 53 51 47 47 49 47 47 47 47 44 44 45 46 47 49 51 54 56 58 57 56 56 55 53 54 54 51 47
68 70 67 70 65 64 66 64 63 60 59 62 63 60 56 53 54 52 52 48 52 49 47 47 46 45 44 44 45 46 46 46 49 51 52 53 53 53 52 52 51 51 49 48
59 55 50 49 55 51 58 53 56 54 52 56 43 42 28 45 53 51 49 50 52 46 45 45 44 43 43 43 44 45 45 45 47 47 48 49 49 49 50 52 52 51 52 52
51 51 52 56 49 50 52 51 54 48 48 47 47 43 46 35 30 54 48 48 43 43 42 43 44 44 44 44 44 45 45 47 49 48 50 51 52 54 54 56 56 54 54 52
41 48 48 45 47 49 54 51 52 51 49 51 44 37 38 27 34 36 54 40 39 40 42 43 44 44 44 45 45 45 47 49 50 51 53 55 56 58 59 60 61 61 60 57
39 42 43 42 43 46 50 58 42 34 39 45 36 26 29 31 36 40 43 34 35 38 40 41 41 42 43 44 46 47 48 49 51 53 55 56 58 59 61 61 62 62 62 61
31 37 42 42 42 38 39 31 31 25 24 19 21 28 30 40 41 43 41 39 35 36 37 38 40 41 43 43 44 45 46 48 52 55 57 59 62 64 64 64 65 64 63 61
33 31 29 31 35 35 30 23 21 27 29 26 21 14 28 33 37 40 39 37 36 35 35 37 39 40 42 43 44 45 47 50 54 58 61 63 63 60 60 61 66 68 66 62
25 25 31 37 39 39 36 37 35 39 39 34 29 28 22 34 34 32 31 32 34 36 36 38 39 41 43 45 46 48 49 52 57 58 54 50 51 51 53 48 50 56 59 62
30 29 36 36 33 33 34 37 41 43 37 27 24 18 30 32 35 35 31 32 35 38 40 41 44 45 47 48 49 49 51 54 51 45 45 38 41 43 44 43 47 49 53 57
31 29 30 32 42 30 30 32 32 34 31 31 29 26 31 31 38 40 38 39 41 42 43 45 47 49 49 51 51 51 52 43 44 41 38 32 30 31 38 37 46 49 48 48
24 34 33 38 40 40 37 33 31 27 22 23 26 24 32 34 37 38 41 42 44 46 47 50 52 53 52 53 52 49 42 39 28 30 22 22 27 23 24 24 29 44 48 47
27 30 35 35 31 34 24 19 18 22 25 24 31 32 35 38 40 42 46 42 46 51 52 53 55 53 49 45 39 37 35 31 27 19 15 21 22 20 17 22 20 26 41 42
29 31 34 33 33 27 21 21 25 29 28 33 31 34 36 37 44 50 48 51 51 49 49 48 45 35 36 32 32 32 26 24 23 25 19 16 22 21 14 20 25 27 32 36
30 32 26 21 24 23 25 29 29 31 32 36 37 38 38 44 47 50 51 50 45 43 37 35 26 24 26 27 21 10 16 17 18 20 19 19 15 16 21 17 20 23 30 38
24 21 20 21 26 29 34 34 33 35 38 39 40 39 45 47 50 45 44 38 33 28 27 19 12 9 11 9 7 6 9 13 14 17 19 18 20 14 11 14 16 19 29 23
22 24 27 30 31 35 39 41 37 40 41 42 39 36 36 36 37 37 33 27 24 20 13 11 6 6 6 8 8 7 8 10 13 13 18 12 14 8 6 20 12 17 23 28
25 29 32 35 38 41 43 40 40 38 35 28 21 17 21 26 29 16 16 14 14 17 13 6 4 3 8 7 7 7 5 7 9 8 10 18 20 12 8 17 11 20 21 19
27 29 29 26 22 20 20 17 15 12 12 10 13 18 18 15 6 10 12 11 13 14 16 4 3 8 7 6 6 7 5 5 7 11 14 12 12 16 11 9 11 16 10 8
14 9 9 6 5 6 9 9 9 12 10 11 12 14 16 13 7 9 9 9 19 17 10 5 8 8 8 6 5 3 2 3 4 4 6 10 10 11 11 15 13 17 16 18
7 4 3 6 10 14 16 13 9 6 7 7 8 13 12 11 12 13 19 23 18 12 9 8 9 9 8 8 7 5 4 4 4 5 7 10 10 5 9 14 13 14 16 16
7 7 7 6 6 7 7 5 5 3 3 5 7 7 10 16 20 19 14 13 13 12 11 9 9 8 7 7 8 8 7 7 7 7 7 7 7 9 10 10 10 12 14 16
8 10 12 10 7 2 7 4 5 1 7 8 13 13 12 14 15 16 15 15 14 12 11 10 9 8 7 7 7 8 10 11 12 12 13 13 12 11 11 10 11 12 13 17
7 5 7 10 8 7 5 4 7 3 11 13 9 12 11 13 14 14 14 13 12 11 10 9 9 7 6 5 6 8 10 12 14 16 18 19 20 19 19 19 17 17 17 16
5 4 4 6 10 8 8 10 10 6 9 10 13 12 13 13 14 13 11 11 10 9 10 9 7 5 5 7 8 10 12 13 14 16 17 17 19 24 26 25 23 24 23 21
Wind_Direction
276 276 277 277 272 269 264 262 261 262 262 268 264 265 267 268 267 268 269 270 268 267 271 267 264 262 261 259 257 258 258 260 261 260 259 260 260 262 263 263 263 263 261 259
272 272 272 269 266 264 263 262 259 260 262 265 263 265 264 265 267 266 265 267 268 269 269 270 268 266 264 262 261 258 256 257 258 260 262 263 262 261 261 263 262 261 261 260
270 272 272 270 267 263 262 264 264 264 263 265 263 262 266 268 262 263 266 266 269 269 270 269 268 268 267 266 264 263 260 256 254 254 256 258 261 263 263 262 262 263 263 262
270 271 266 268 269 271 262 265 264 258 257 261 263 267 264 267 266 263 264 264 267 268 266 267 266 265 263 263 262 262 262 260 259 257 257 257 257 258 259 260 260 260 260 259
265 268 267 269 268 273 262 264 262 262 263 258 256 260 261 261 261 268 265 265 264 264 263 263 264 264 263 261 260 260 262 263 263 261 261 260 260 260 258 259 259 258 257 256
271 269 270 271 267 261 267 262 262 262 260 256 261 255 256 257 255 255 265 262 257 258 259 261 262 264 265 266 265 264 265 266 265 265 264 263 263 261 260 259 257 255 255 253
267 267 266 268 267 268 267 254 254 257 255 261 254 252 256 241 215 237 266 263 257 257 256 259 261 262 264 266 268 269 270 271 271 270 268 265 263 261 259 257 257 256 256 255
276 264 257 259 265 268 269 270 255 239 229 239 241 239 233 234 238 251 262 265 264 261 261 261 263 265 267 268 271 273 275 275 274 272 270 268 265 262 259 255 252 252 252 251
278 268 270 275 281 274 267 250 257 241 233 226 220 234 247 243 246 253 262 264 266 264 262 262 264 266 268 271 273 275 277 277 275 272 271 271 267 262 258 253 246 244 246 245
272 257 261 267 272 271 268 254 240 243 244 242 240 244 263 264 258 256 263 264 266 268 268 268 268 270 274 276 278 279 279 278 280 279 276 271 266 260 257 251 244 241 240 240
277 268 257 267 266 263 262 258 251 247 243 243 244 238 248 255 266 266 273 275 268 268 269 272 276 278 280 282 282 283 282 281 280 273 273 266 262 260 257 252 241 232 230 232
280 270 265 268 264 260 255 250 244 243 240 243 249 242 255 254 265 273 277 274 275 275 275 276 278 280 284 286 285 282 283 276 272 270 265 261 255 255 254 257 242 233 226 226
263 251 250 252 264 266 256 239 239 240 243 245 260 261 263 264 266 270 273 274 280 279 280 281 281 282 283 282 281 280 276 273 270 256 254 248 248 261 262 260 248 238 224 218
248 245 249 250 250 254 251 253 260 260 258 266 257 260 265 273 279 278 269 276 280 279 282 283 283 283 279 276 272 270 270 262 249 247 251 261 245 230 286 283 264 232 223 220
247 245 243 245 248 256 255 257 257 260 262 262 266 265 269 271 273 277 284 281 283 284 283 281 279 275 267 262 268 269 237 237 237 239 261 247 262 271 285 260 261 249 241 229
248 248 250 247 255 261 263 263 268 268 269 269 271 273 281 277 278 279 279 280 281 279 277 275 272 255 265 267 241 257 230 232 244 241 242 247 238 281 257 245 238 248 238 242
250 251 254 259 263 266 268 268 269 272 272 276 279 282 282 280 279 278 276 276 270 268 266 269 246 241 227 282 243 258 259 242 248 247 244 253 270 268 242 217 230 251 217 226
257 260 263 266 268 269 273 275 275 272 273 275 279 275 274 283 283 279 273 257 253 254 224 208 195 217 246 252 266 250 267 248 243 242 252 269 265 222 256 193 214 219 215 243
265 271 275 275 276 276 275 276 274 274 274 271 262 257 277 285 292 267 237 218 203 229 221 177 170 192 226 227 239 245 252 246 251 257 260 263 267 264 270 216 202 210 223 207
275 275 275 275 273 273 275 276 278 268 255 254 260 271 275 281 210 179 176 180 201 207 170 129 158 183 184 201 210 223 248 242 262 260 264 270 275 267 260 229 234 224 210 225
278 279 272 266 266 278 277 274 276 280 270 265 256 254 243 253 225 179 167 152 146 138 139 154 164 153 147 147 147 178 215 262 298 322 304 273 284 289 278 242 260 261 264 260
281 252 227 253 283 279 267 270 257 269 262 259 241 242 208 171 144 152 147 133 123 137 144 147 142 132 123 115 103 89 89 64 11 346 326 323 328 295 248 259 284 272 261 259
215 205 245 281 270 287 245 226 216 237 214 169 156 152 153 131 128 124 127 134 131 137 134 134 122 108 96 75 57 38 30 16 9 359 340 331 319 318 317 304 287 274 282 281
224 263 261 252 227 248 183 184 140 136 171 165 156 145 138 141 129 125 132 130 126 130 131 125 118 104 76 49 28 8 1 350 343 335 335 330 326 318 310 299 297 291 281 276
257 240 232 202 202 199 189 154 148 136 147 146 152 138 142 136 128 126 126 127 131 132 129 117 98 82 61 42 20 359 347 339 336 331 328 327 326 322 316 312 308 302 296 290
186 135 143 194 200 197 203 179 161 134 137 142 138 137 132 127 124 125 134 138 142 131 118 106 101 77 39 13 349 333 329 323 321 320 319 313 313 313 310 311 311 308 305 297